Tracking 20721 objects as of 1-Jun-2020
HD Live streaming from Space Station
objects crossing your sky now

FENGYUN 1C DEB

Track FENGYUN 1C DEB now!
10-day predictions


NORAD ID: 32343
Int'l Code: 1999-025CYL
Perigee: 731.0 km
Apogee: 960.5 km
Inclination: 98.6 °
Period: 101.7 minutes
Semi major axis: 7216 km
RCS: 0.0118 m2 (small)
Launch date: May 10, 1999
Source: People's Republic of China (PRC)
Launch site: Taiyaun Space Center, China (TSC)

Note: This is SATELLITE DEBRIS
aabbcc
Your satellite tracking list
Your tracking list is empty




NASA's NSSDC Master Catalog

Two Line Element Set (TLE):
1 32343U 99025CYL 20150.36296536  .00000111  00000-0  68869-4 0  9992
2 32343  98.6160 179.0890 0159010 195.4914 164.1363 14.16079104669480
Source of the keplerian elements: AFSPC